Arad, Romania

7:01 PM EEST on April 24, 2017 (GMT +0300)
Arad

Weather History for LRAR - March, 2013

Change the Weather History Date:

Monday, March 11, 2013

  Actual Average Record
Temperature  
Mean Temperature 46 °F -  
Max Temperature 52 °F 55 °F 62 °F (2001)
Min Temperature 41 °F 34 °F 6 °F (2005)
Degree Days  
Heating Degree Days 18    
Moisture  
Dew Point 46 °F    
Average Humidity 95    
Maximum Humidity 100    
Minimum Humidity 65    
Precipitation  
Precipitation 0.00 in - - ()
Sea Level Pressure  
Sea Level Pressure 29.50 in    
Wind  
Wind Speed 4 mph ()    
Max Wind Speed 12 mph    
Max Gust Speed -    
Visibility 4.1 miles    
Events Fog , Rain    
Averages and records for this station are not official NWS values.
T = Trace of Precipitation, MM = Missing Value Source: Averaged Metar Reports

Daily Weather History Graph

Daily Weather History Graph

Search for Another Location

Airport or City:

Trip Planner

Search our weather history database for the weather conditions in past years. The results will help you decide how hot, cold, wet, or windy it might be!

Date:

Astronomy

Mar. 11, 2013 Rise Set
Actual Time 6:55 AM EET 6:35 PM EET
Civil Twilight 6:25 AM EET 7:05 PM EET
Nautical Twilight 5:50 AM EET 7:39 PM EET
Astronomical Twilight 5:15 AM EET 8:15 PM EET
Moon 6:18 AM EET (3/11) 6:29 PM EET (3/11)
Length of Visible Light 12h 39m
Length of Day
11h 39m
Waning Crescent, 0% of the Moon is Illuminated
Mar 11
Waning Crescent
Mar 11
New
Mar 19
First Quarter
Mar 27
Full
Apr 3
Last Quarter

Hourly Weather History & Observations

Time (EET) Temp. Windchill Dew Point Humidity Pressure Visibility Wind Dir Wind Speed Gust Speed Precip Events Conditions
12:00 AM 46 °F - 44 °F 92%  in 6 mi South 4.5 mph - -  
12:00 AM 46.4 °F 42.4 °F 46.4 °F 100% 29.50 in - South 8.1 mph - N/A   Clear
1:00 AM 46 °F - 45 °F 96% 29.53 in 6 mi South 6.7 mph - -  
1:00 AM 46.4 °F 41.1 °F 46.4 °F 100% 29.50 in - South 11.5 mph - N/A   Clear
2:00 AM 45 °F - 45 °F 99% 29.52 in 6 mi South 4.5 mph - -   Partly Cloudy
2:00 AM 48.2 °F - 48.2 °F 100% 29.50 in 6.2 mi South 10.4 mph - N/A   Partly Cloudy
3:00 AM 47 °F - 46 °F 97% 29.52 in 6 mi South 6.7 mph - -  
3:00 AM 46.4 °F 41.9 °F 46.4 °F 100% 29.50 in 6.2 mi SSW 9.2 mph - N/A   Partly Cloudy
4:00 AM 46 °F - 45 °F 94% 29.49 in 6 mi South 4.5 mph - -  
4:00 AM 46.4 °F 41.9 °F 46.4 °F 100% 29.47 in - SW 9.2 mph - N/A   Clear
5:00 AM 44 °F - 43 °F 96% 29.49 in 6 mi SSW 4.5 mph - -  
5:00 AM 42.8 °F 38.6 °F 42.8 °F 100% 29.47 in - SW 6.9 mph - N/A   Clear
5:30 AM 42.8 °F 40.1 °F 42.8 °F 100% 29.47 in - SSW 4.6 mph - N/A   Clear
6:00 AM 43 °F - 42 °F 97% 29.50 in 6 mi SSW 4.5 mph - -  
6:00 AM 42.8 °F 41.1 °F 42.8 °F 100% 29.47 in 4.3 mi SSW 3.5 mph - N/A Fog Fog
6:30 AM 41.0 °F - 41.0 °F 100% 29.47 in 0.6 mi Calm Calm - N/A Fog Patches of Fog
7:00 AM 41 °F - 41 °F 100% 29.50 in 2 mi SSW 2.2 mph - -   Mist
7:00 AM 41.0 °F 39.0 °F 41.0 °F 100% 29.47 in 0.7 mi South 3.5 mph - N/A Fog Patches of Fog
7:30 AM 41.0 °F 39.0 °F 41.0 °F 100% 29.47 in 0.1 mi South 3.5 mph - N/A Fog Fog
8:00 AM 41 °F - 41 °F 100% 29.50 in 0 mi WSW 2.2 mph - - Fog Heavy Fog
8:00 AM 42.8 °F - 42.8 °F 100% 29.47 in 0.1 mi SSE 2.3 mph - N/A Fog Fog
8:30 AM 42.8 °F - 42.8 °F 100% 29.47 in 0.1 mi West 1.2 mph - N/A Fog Fog
9:00 AM 42 °F - 42 °F 100% 29.51 in 0 mi South 2.2 mph - - Fog Heavy Fog
9:00 AM 44.6 °F - 44.6 °F 100% 29.50 in 0.1 mi SW 2.3 mph - N/A Fog Fog
9:30 AM 44.6 °F 43.1 °F 44.6 °F 100% 29.50 in 0.2 mi West 3.5 mph - N/A Fog Fog
10:00 AM 44 °F - 44 °F 100% 29.52 in 0 mi West 2.2 mph - - Fog Heavy Fog
10:00 AM 46.4 °F - 46.4 °F 100% 29.50 in 0.3 mi West 2.3 mph - N/A Fog Fog
10:30 AM 48.2 °F - 48.2 °F 100% 29.50 in 1.4 mi SE 1.2 mph - N/A   Overcast
11:00 AM 45 °F - 45 °F 100% 29.52 in 0 mi Calm Calm - - Rain Light Drizzle
11:00 AM 48.2 °F - 48.2 °F 100% 29.50 in 1.6 mi Variable 2.3 mph - N/A   Overcast
11:30 AM 48.2 °F - 48.2 °F 100% 29.50 in 5.0 mi NW 4.6 mph - N/A   Overcast
12:00 PM 47 °F - 47 °F 100% 29.52 in 1 mi SE 2.2 mph - - Fog Light Fog
12:00 PM 50.0 °F - 50.0 °F 100% 29.50 in 5.0 mi NNW 5.8 mph - N/A   Overcast
12:30 PM 50.0 °F - 50.0 °F 100% 29.50 in 6.2 mi NW 5.8 mph - N/A   Overcast
1:00 PM 50 °F - 50 °F 100% 29.52 in 1 mi North 2.2 mph - -   Mist
1:00 PM 51.8 °F - 50.0 °F 94% 29.50 in 6.2 mi NW 5.8 mph - N/A   Overcast
1:30 PM 51.8 °F - 50.0 °F 94% 29.50 in 6.2 mi NNW 4.6 mph - N/A   Overcast
2:00 PM 51 °F - 47 °F 83% 29.51 in 2 mi NNW 2.2 mph - -   Mist
2:00 PM 51.8 °F - 50.0 °F 94% 29.50 in 6.2 mi NNW 4.6 mph - N/A   Mostly Cloudy
2:30 PM 53.6 °F - 48.2 °F 82% 29.50 in 6.2 mi NNW 2.3 mph - N/A   Mostly Cloudy
3:00 PM 53 °F - 47 °F 75% 29.50 in 6 mi North 4.5 mph - -   Mostly Cloudy
3:00 PM 51.8 °F - 50.0 °F 94% 29.50 in 6.2 mi NW 4.6 mph - N/A   Mostly Cloudy
3:30 PM 53.6 °F - 48.2 °F 82% 29.47 in 6.2 mi NNW 3.5 mph - N/A   Mostly Cloudy
4:00 PM 53 °F - 46 °F 69% 29.49 in 6 mi NNW 2.2 mph - -   Overcast
4:00 PM 53.6 °F - 48.2 °F 82% 29.47 in 6.2 mi NNW 3.5 mph - N/A   Scattered Clouds
4:30 PM 53.6 °F - 48.2 °F 82% 29.47 in 6.2 mi NNW 4.6 mph - N/A   Mostly Cloudy
5:00 PM 53 °F - 45 °F 65% 29.49 in 6 mi NNW 2.2 mph - -   Overcast
5:00 PM 53.6 °F - 50.0 °F 88% 29.47 in 6.2 mi North 5.8 mph - N/A   Scattered Clouds
5:30 PM 51.8 °F - 48.2 °F 88% 29.47 in 6.2 mi NNW 5.8 mph - N/A   Scattered Clouds
6:00 PM 52 °F - 46 °F 75% 29.49 in 6 mi North 2.2 mph - -   Overcast
6:00 PM 51.8 °F - 48.2 °F 88% 29.47 in 6.2 mi North 4.6 mph - N/A   Partly Cloudy
6:30 PM 50.0 °F - 48.2 °F 94% 29.50 in - North 2.3 mph - N/A   Clear
7:00 PM 50 °F - 47 °F 85% 29.50 in 6 mi North 2.2 mph - -   Overcast
7:00 PM 50.0 °F - 48.2 °F 94% 29.50 in - NNW 1.2 mph - N/A   Clear
7:30 PM 48.2 °F - 48.2 °F 100% 29.50 in - Calm Calm - N/A   Clear
8:00 PM 47 °F - 46 °F 95% 29.52 in 6 mi Calm Calm - -   Mostly Cloudy
8:00 PM 46.4 °F - 46.4 °F 100% 29.50 in - SE 1.2 mph - N/A   Clear
8:30 PM 46.4 °F - 46.4 °F 100% 29.53 in - ESE 1.2 mph - N/A   Clear
9:00 PM 46 °F - 45 °F 96% 29.54 in 6 mi Calm Calm - -   Mostly Cloudy
9:00 PM 46.4 °F - 46.4 °F 100% 29.53 in - Variable 1.2 mph - N/A   Clear
10:00 PM 46 °F - 45 °F 96% 29.55 in 6 mi Calm Calm - -   Mostly Cloudy
10:00 PM 44.6 °F - 44.6 °F 100% 29.53 in - South 2.3 mph - N/A   Clear
11:00 PM 46 °F - 45 °F 93% 29.56 in 6 mi SW 2.2 mph - -   Mostly Cloudy
11:00 PM 42.8 °F - 42.8 °F 100% 29.56 in 3.7 mi South 1.2 mph - N/A   Partly Cloudy